TimeMDT,TemperatureF,Dew PointF,Humidity,Sea Level PressureIn,VisibilityMPH,Wind Direction,Wind SpeedMPH,Gust SpeedMPH,PrecipitationIn,Events,Conditions,WindDirDegrees,DateUTC
12:52 AM,28.0,19.9,72,30.01,10.0,East,4.6,-,N/A,,Clear,90,2012-10-07 06:52:00
1:52 AM,24.1,17.1,75,30.03,10.0,Calm,Calm,-,N/A,,Clear,0,2012-10-07 07:52:00
2:52 AM,27.0,19.0,72,30.00,10.0,Calm,Calm,-,N/A,,Clear,0,2012-10-07 08:52:00
3:52 AM,25.0,19.0,78,30.01,10.0,North,5.8,-,N/A,,Clear,10,2012-10-07 09:52:00
4:52 AM,25.0,17.1,72,30.04,10.0,North,6.9,-,N/A,,Clear,10,2012-10-07 10:52:00
5:52 AM,25.0,18.0,75,30.07,10.0,NNW,8.1,-,N/A,,Clear,340,2012-10-07 11:52:00
6:52 AM,21.9,17.1,82,30.15,10.0,North,4.6,-,N/A,,Clear,10,2012-10-07 12:52:00
7:52 AM,24.1,18.0,77,30.17,10.0,North,3.5,-,N/A,,Clear,10,2012-10-07 13:52:00
8:52 AM,28.0,21.0,75,30.18,10.0,Calm,Calm,-,N/A,,Clear,0,2012-10-07 14:52:00
9:52 AM,36.0,25.0,64,30.16,10.0,Variable,3.5,-,N/A,,Clear,0,2012-10-07 15:52:00
10:52 AM,41.0,25.0,53,30.14,10.0,Variable,3.5,-,N/A,,Clear,0,2012-10-07 16:52:00
11:52 AM,48.0,21.0,34,30.09,10.0,Variable,4.6,-,N/A,,Clear,0,2012-10-07 17:52:00
12:52 PM,51.1,15.1,24,30.07,10.0,ENE,6.9,-,N/A,,Clear,70,2012-10-07 18:52:00
1:52 PM,55.0,12.9,19,30.04,10.0,North,8.1,-,N/A,,Clear,10,2012-10-07 19:52:00
2:52 PM,55.9,10.0,16,30.00,10.0,Variable,3.5,-,N/A,,Clear,0,2012-10-07 20:52:00
3:52 PM,55.9,10.0,16,29.99,10.0,Variable,3.5,-,N/A,,Clear,0,2012-10-07 21:52:00
4:52 PM,57.0,8.1,14,29.99,10.0,Calm,Calm,-,N/A,,Clear,0,2012-10-07 22:52:00
5:52 PM,55.0,9.0,16,30.00,10.0,Calm,Calm,-,N/A,,Clear,0,2012-10-07 23:52:00
6:52 PM,46.0,10.0,23,30.07,10.0,SSE,5.8,-,N/A,,Clear,160,2012-10-08 00:52:00
7:52 PM,41.0,10.0,28,30.10,10.0,SE,3.5,-,N/A,,Clear,140,2012-10-08 01:52:00
8:52 PM,37.9,10.9,33,30.12,10.0,Calm,Calm,-,N/A,,Clear,0,2012-10-08 02:52:00
9:52 PM,37.9,14.0,38,30.10,10.0,NNE,8.1,-,N/A,,Clear,20,2012-10-08 03:52:00
10:52 PM,28.9,9.0,43,30.13,10.0,ENE,4.6,-,N/A,,Clear,60,2012-10-08 04:52:00
11:52 PM,32.0,5.0,32,30.08,10.0,NNE,8.1,-,N/A,,Clear,30,2012-10-08 05:52:00